Time,TemperatureF,DewpointF,PressureIn,WindDirection,WindDirectionDegrees,WindSpeedMPH,WindSpeedGustMPH,Humidity,HourlyPrecipIn,Conditions,Clouds,dailyrainin,SolarRadiationWatts/m^2,SoftwareType,DateUTC
2013-04-05 00:02:00,36.7,33.5,29.83,NNE,22,0.0,0.0,88,0.00,CLR,,0.00,0.0,WeatherDisplay:10.37,2013-04-04 22:02:00,
2013-04-05 00:07:00,36.5,33.3,29.83,NNE,22,0.0,0.0,88,0.00,CLR,,0.00,0.0,WeatherDisplay:10.37,2013-04-04 22:07:00,
2013-04-05 00:12:00,36.1,33.2,29.83,NNE,22,0.0,0.0,89,0.00,CLR,,0.00,0.0,WeatherDisplay:10.37,2013-04-04 22:12:00,
2013-04-05 00:17:00,36.0,33.0,29.88,NNE,22,0.0,0.0,89,0.00,CLR,,0.00,0.0,WeatherDisplay:10.37,2013-04-04 22:17:00,
2013-04-05 00:22:00,35.8,32.9,29.88,NNE,22,0.0,0.0,89,0.00,CLR,,0.00,0.0,WeatherDisplay:10.37,2013-04-04 22:22:00,
2013-04-05 00:27:00,35.6,32.7,29.88,NNE,22,0.0,0.0,89,0.00,CLR,,0.00,0.0,WeatherDisplay:10.37,2013-04-04 22:27:00,
2013-04-05 00:32:00,35.4,32.8,29.85,NNE,22,0.0,0.0,90,0.00,CLR,,0.00,0.0,WeatherDisplay:10.37,2013-04-04 22:32:00,
2013-04-05 00:37:00,35.2,32.6,29.85,NNE,22,0.0,0.0,90,0.00,CLR,,0.00,0.0,WeatherDisplay:10.37,2013-04-04 22:37:00,
2013-04-05 00:42:00,35.1,32.7,29.85,SSW,202,0.0,0.0,91,0.00,CLR,,0.00,0.0,WeatherDisplay:10.37,2013-04-04 22:42:00,
2013-04-05 00:47:00,34.9,32.5,29.83,SSW,202,0.0,0.0,91,0.00,CLR,,0.00,0.0,WeatherDisplay:10.37,2013-04-04 22:47:00,
2013-04-05 00:52:00,34.5,32.2,29.83,SSW,202,0.0,0.0,91,0.00,CLR,,0.00,0.0,WeatherDisplay:10.37,2013-04-04 22:52:00,
2013-04-05 00:57:00,34.5,32.2,29.83,SSW,202,0.0,0.0,91,0.00,CLR,,0.00,0.0,WeatherDisplay:10.37,2013-04-04 22:57:00,
2013-04-05 01:03:00,34.3,32.3,29.83,SSW,202,0.0,0.0,92,0.00,CLR,,0.00,0.0,WeatherDisplay:10.37,2013-04-04 23:03:00,
2013-04-05 01:08:00,34.2,32.1,29.83,SSW,202,0.0,0.0,92,0.00,CLR,,0.00,0.0,WeatherDisplay:10.37,2013-04-04 23:08:00,
2013-04-05 01:13:00,34.0,31.9,29.83,SSW,202,0.0,0.0,92,0.00,CLR,,0.00,0.0,WeatherDisplay:10.37,2013-04-04 23:13:00,
2013-04-05 01:18:00,34.0,31.9,29.85,NW,315,0.0,0.0,92,0.00,CLR,,0.00,0.0,WeatherDisplay:10.37,2013-04-04 23:18:00,
2013-04-05 01:23:00,33.8,31.7,29.85,NNE,22,0.0,0.0,92,0.00,CLR,,0.00,0.0,WeatherDisplay:10.37,2013-04-04 23:23:00,
2013-04-05 01:28:00,33.8,32.0,29.85,NNE,22,0.0,0.0,93,0.00,CLR,,0.00,0.0,WeatherDisplay:10.37,2013-04-04 23:28:00,
2013-04-05 01:33:00,33.8,32.0,29.88,NNE,22,0.0,0.0,93,0.00,CLR,,0.00,0.0,WeatherDisplay:10.37,2013-04-04 23:33:00,
2013-04-05 01:38:00,33.6,32.1,29.88,NNW,338,0.0,0.0,94,0.00,CLR,,0.00,0.0,WeatherDisplay:10.37,2013-04-04 23:38:00,
2013-04-05 01:43:00,33.6,32.1,29.88,NNW,338,0.0,0.0,94,0.00,CLR,,0.00,0.0,WeatherDisplay:10.37,2013-04-04 23:43:00,
2013-04-05 01:48:00,33.4,31.9,29.88,NNW,338,0.0,0.0,94,0.00,CLR,,0.00,0.0,WeatherDisplay:10.37,2013-04-04 23:48:00,
2013-04-05 01:53:00,33.3,31.7,29.88,NNW,338,0.0,0.0,94,0.00,CLR,,0.00,0.0,WeatherDisplay:10.37,2013-04-04 23:53:00,
2013-04-05 01:58:00,33.3,31.7,29.88,NNW,338,0.0,0.0,94,0.00,CLR,,0.00,0.0,WeatherDisplay:10.37,2013-04-04 23:58:00,
2013-04-05 02:03:00,33.3,31.7,29.85,NNW,338,0.0,0.0,94,0.00,CLR,,0.00,0.0,WeatherDisplay:10.37,2013-04-05 00:03:00,
2013-04-05 02:08:00,33.1,31.5,29.85,NNW,338,0.0,0.0,94,0.00,CLR,,0.00,0.0,WeatherDisplay:10.37,2013-04-05 00:08:00,
2013-04-05 02:13:00,33.1,31.8,29.85,NNW,338,0.0,0.0,95,0.00,CLR,,0.00,0.0,WeatherDisplay:10.37,2013-04-05 00:13:00,
2013-04-05 02:18:00,33.1,31.8,29.85,NNW,338,0.0,0.0,95,0.00,CLR,,0.00,0.0,WeatherDisplay:10.37,2013-04-05 00:18:00,
2013-04-05 02:23:00,33.1,31.8,29.85,NNW,338,0.0,0.0,95,0.00,CLR,,0.00,0.0,WeatherDisplay:10.37,2013-04-05 00:23:00,
2013-04-05 02:28:00,33.1,31.8,29.85,NNW,338,0.0,0.0,95,0.00,CLR,,0.00,0.0,WeatherDisplay:10.37,2013-04-05 00:28:00,
2013-04-05 02:33:00,33.1,31.8,29.85,NNW,338,0.0,0.0,95,0.00,CLR,,0.00,0.0,WeatherDisplay:10.37,2013-04-05 00:33:00,
2013-04-05 02:38:00,32.9,31.6,29.85,NNW,338,0.0,0.0,95,0.00,CLR,,0.00,0.0,WeatherDisplay:10.37,2013-04-05 00:38:00,
2013-04-05 02:43:00,32.9,31.6,29.85,NNW,338,0.0,0.0,95,0.00,CLR,,0.00,0.0,WeatherDisplay:10.37,2013-04-05 00:43:00,
2013-04-05 02:48:00,32.9,31.6,29.85,NNW,338,0.0,0.0,95,0.00,CLR,,0.00,0.0,WeatherDisplay:10.37,2013-04-05 00:48:00,
2013-04-05 02:53:00,33.1,32.1,29.85,NNW,338,0.0,0.0,96,0.00,CLR,,0.00,0.0,WeatherDisplay:10.37,2013-04-05 00:53:00,
2013-04-05 02:59:00,33.1,32.1,29.85,NNW,338,0.0,0.0,96,0.00,CLR,,0.00,0.0,WeatherDisplay:10.37,2013-04-05 00:59:00,
2013-04-05 03:04:00,33.1,32.1,29.83,NNW,338,0.0,0.0,96,0.00,CLR,,0.00,0.0,WeatherDisplay:10.37,2013-04-05 01:04:00,
2013-04-05 03:09:00,33.1,32.1,29.83,ENE,68,0.0,0.0,96,0.00,CLR,,0.00,0.0,WeatherDisplay:10.37,2013-04-05 01:09:00,
2013-04-05 03:14:00,33.3,32.2,29.83,ENE,68,0.0,0.0,96,0.00,CLR,,0.00,0.0,WeatherDisplay:10.37,2013-04-05 01:14:00,
2013-04-05 03:19:00,33.3,32.2,29.83,ENE,68,0.0,0.0,96,0.00,CLR,,0.00,0.0,WeatherDisplay:10.37,2013-04-05 01:19:00,
2013-04-05 03:24:00,33.4,32.7,29.83,ENE,68,0.0,0.0,97,0.00,CLR,,0.00,0.0,WeatherDisplay:10.37,2013-04-05 01:24:00,
2013-04-05 03:29:00,33.6,32.9,29.83,ENE,68,0.0,0.0,97,0.00,CLR,,0.00,0.0,WeatherDisplay:10.37,2013-04-05 01:29:00,
2013-04-05 03:35:00,33.6,32.9,29.83,North,0,0.0,0.0,97,0.00,CLR,,0.00,0.0,WeatherDisplay:10.37,2013-04-05 01:35:00,
2013-04-05 03:40:00,33.6,32.9,29.83,NNE,22,0.0,0.0,97,0.00,CLR,,0.00,0.0,WeatherDisplay:10.37,2013-04-05 01:40:00,
2013-04-05 03:45:00,33.8,33.0,29.83,SSE,158,0.0,0.0,97,0.00,CLR,,0.00,0.0,WeatherDisplay:10.37,2013-04-05 01:45:00,
2013-04-05 03:50:00,33.8,33.0,29.83,SSE,158,0.0,0.0,97,0.00,CLR,,0.00,0.0,WeatherDisplay:10.37,2013-04-05 01:50:00,
2013-04-05 03:55:00,33.8,33.0,29.83,SSE,158,0.0,0.0,97,0.00,CLR,,0.00,0.0,WeatherDisplay:10.37,2013-04-05 01:55:00,
2013-04-05 04:00:00,33.8,33.0,29.83,SSE,158,0.0,0.0,97,0.00,CLR,,0.00,0.0,WeatherDisplay:10.37,2013-04-05 02:00:00,
2013-04-05 04:05:00,33.8,33.0,29.83,SSE,158,0.0,0.0,97,0.00,CLR,,0.00,0.0,WeatherDisplay:10.37,2013-04-05 02:05:00,
2013-04-05 04:10:00,33.8,33.0,29.83,ESE,112,2.3,2.3,97,0.00,CLR,,0.00,0.0,WeatherDisplay:10.37,2013-04-05 02:10:00,
2013-04-05 04:15:00,34.0,33.2,29.83,SSE,158,0.0,0.0,97,0.00,CLR,,0.00,0.0,WeatherDisplay:10.37,2013-04-05 02:15:00,
2013-04-05 04:20:00,34.0,33.5,29.83,ESE,112,0.0,0.0,98,0.00,CLR,,0.00,0.0,WeatherDisplay:10.37,2013-04-05 02:20:00,
2013-04-05 04:25:00,34.0,33.5,29.83,ESE,112,1.2,0.0,98,0.00,CLR,,0.00,0.0,WeatherDisplay:10.37,2013-04-05 02:25:00,
2013-04-05 04:30:00,34.3,33.8,29.83,SSW,202,0.0,0.0,98,0.00,CLR,,0.00,0.0,WeatherDisplay:10.37,2013-04-05 02:30:00,
2013-04-05 04:35:00,34.5,34.0,29.83,SSW,202,0.0,0.0,98,0.00,CLR,,0.00,0.0,WeatherDisplay:10.37,2013-04-05 02:35:00,
2013-04-05 04:41:00,34.5,34.0,29.83,SSW,202,0.0,0.0,98,0.00,CLR,,0.00,0.0,WeatherDisplay:10.37,2013-04-05 02:41:00,
2013-04-05 04:46:00,34.5,34.0,29.83,SSW,202,0.0,0.0,98,0.00,CLR,,0.00,0.0,WeatherDisplay:10.37,2013-04-05 02:46:00,
2013-04-05 04:51:00,34.5,34.0,29.83,SSW,202,0.0,0.0,98,0.00,CLR,,0.00,0.0,WeatherDisplay:10.37,2013-04-05 02:51:00,
2013-04-05 04:56:00,34.7,34.2,29.83,South,180,0.0,0.0,98,0.00,CLR,,0.00,0.0,WeatherDisplay:10.37,2013-04-05 02:56:00,
2013-04-05 05:01:00,34.7,34.2,29.83,SSE,158,0.0,0.0,98,0.00,CLR,,0.00,0.0,WeatherDisplay:10.37,2013-04-05 03:01:00,
2013-04-05 05:06:00,34.7,34.2,29.83,ESE,112,0.0,0.0,98,0.00,CLR,,0.00,0.0,WeatherDisplay:10.37,2013-04-05 03:06:00,
2013-04-05 05:11:00,34.7,34.2,29.83,SSW,202,0.0,0.0,98,0.00,CLR,,0.00,0.0,WeatherDisplay:10.37,2013-04-05 03:11:00,
2013-04-05 05:16:00,34.7,34.2,29.83,ESE,112,1.2,1.2,98,0.00,CLR,,0.00,0.0,WeatherDisplay:10.37,2013-04-05 03:16:00,
2013-04-05 05:21:00,34.9,34.4,29.80,ESE,112,0.0,0.0,98,0.00,CLR,,0.00,0.0,WeatherDisplay:10.37,2013-04-05 03:21:00,
2013-04-05 05:26:00,34.9,34.4,29.80,SSE,158,0.0,0.0,98,0.00,CLR,,0.00,0.0,WeatherDisplay:10.37,2013-04-05 03:26:00,
2013-04-05 05:31:00,34.9,34.4,29.80,ESE,112,0.0,0.0,98,0.00,CLR,,0.00,0.0,WeatherDisplay:10.37,2013-04-05 03:31:00,
2013-04-05 05:36:00,34.9,34.4,29.80,SE,135,0.0,0.0,98,0.00,CLR,,0.00,0.0,WeatherDisplay:10.37,2013-04-05 03:36:00,
2013-04-05 05:41:00,35.1,34.6,29.80,ESE,112,1.6,0.0,98,0.00,CLR,,0.00,0.0,WeatherDisplay:10.37,2013-04-05 03:41:00,
2013-04-05 05:46:00,35.2,34.7,29.80,SSW,202,1.2,1.6,98,0.00,CLR,,0.00,0.0,WeatherDisplay:10.37,2013-04-05 03:46:00,
2013-04-05 05:51:00,35.4,34.9,29.80,ESE,112,2.3,2.3,98,0.00,CLR,,0.00,0.0,WeatherDisplay:10.37,2013-04-05 03:51:00,
2013-04-05 05:56:00,35.6,35.1,29.80,ESE,112,4.6,4.6,98,0.00,CLR,,0.00,0.0,WeatherDisplay:10.37,2013-04-05 03:56:00,
2013-04-05 06:00:00,35.6,35.1,29.80,South,180,1.2,1.2,98,0.00,OVC,,0.00,0.0,WeatherDisplay:10.37,2013-04-05 04:00:00,
2013-04-05 06:05:00,35.8,35.3,29.80,ESE,112,1.2,1.2,98,0.00,OVC,,0.00,0.0,WeatherDisplay:10.37,2013-04-05 04:05:00,
2013-04-05 06:10:00,36.0,35.5,29.80,NNW,338,1.2,0.0,98,0.00,OVC,,0.00,0.0,WeatherDisplay:10.37,2013-04-05 04:10:00,
2013-04-05 06:15:00,36.0,35.5,29.80,ESE,112,1.2,1.2,98,0.00,OVC,,0.00,0.0,WeatherDisplay:10.37,2013-04-05 04:15:00,
2013-04-05 06:20:00,36.1,35.6,29.77,ESE,112,2.3,2.3,98,0.00,OVC,,0.00,0.0,WeatherDisplay:10.37,2013-04-05 04:20:00,
2013-04-05 06:25:00,36.3,35.8,29.77,ESE,112,3.1,3.1,98,0.00,OVC,,0.00,0.0,WeatherDisplay:10.37,2013-04-05 04:25:00,
2013-04-05 06:30:00,36.3,35.8,29.77,NW,315,2.3,2.3,98,0.00,OVC,,0.00,0.0,WeatherDisplay:10.37,2013-04-05 04:30:00,
2013-04-05 06:35:00,36.5,36.0,29.83,SSE,158,2.6,2.6,98,0.00,OVC,,0.00,1.8,WeatherDisplay:10.37,2013-04-05 04:35:00,
2013-04-05 06:40:00,36.7,35.9,29.83,ESE,112,2.3,2.3,97,0.00,OVC,,0.00,4.3,WeatherDisplay:10.37,2013-04-05 04:40:00,
2013-04-05 06:45:00,36.7,35.9,29.83,NNE,22,3.5,3.5,97,0.00,OVC,,0.00,6.9,WeatherDisplay:10.37,2013-04-05 04:45:00,
2013-04-05 06:50:00,36.9,36.1,29.80,ESE,112,3.5,3.5,97,0.00,OVC,,0.00,9.6,WeatherDisplay:10.37,2013-04-05 04:50:00,
2013-04-05 06:55:00,36.9,36.1,29.80,East,90,5.8,5.8,97,0.00,OVC,,0.00,12.2,WeatherDisplay:10.37,2013-04-05 04:55:00,
2013-04-05 07:00:00,37.0,36.3,29.80,ENE,68,4.6,4.6,97,0.00,OVC,,0.00,14.8,WeatherDisplay:10.37,2013-04-05 05:00:00,
2013-04-05 07:05:00,37.0,36.0,29.74,NNE,22,4.6,4.6,96,0.00,OVC,,0.00,17.7,WeatherDisplay:10.37,2013-04-05 05:05:00,
2013-04-05 07:10:00,37.0,36.0,29.74,NNE,22,3.5,3.5,96,0.00,OVC,,0.00,20.3,WeatherDisplay:10.37,2013-04-05 05:10:00,
2013-04-05 07:15:00,37.0,36.0,29.74,SSE,158,4.6,4.6,96,0.00,OVC,,0.00,22.9,WeatherDisplay:10.37,2013-04-05 05:15:00,
2013-04-05 07:20:00,36.9,35.8,29.74,ENE,68,2.3,2.3,96,0.00,OVC,,0.00,25.7,WeatherDisplay:10.37,2013-04-05 05:20:00,
2013-04-05 07:25:00,36.9,35.6,29.74,ESE,112,5.8,5.8,95,0.00,OVC,,0.00,28.4,WeatherDisplay:10.37,2013-04-05 05:25:00,
2013-04-05 07:30:00,36.9,35.6,29.74,WSW,248,3.5,3.5,95,0.00,OVC,,0.00,31.2,WeatherDisplay:10.37,2013-04-05 05:30:00,
2013-04-05 07:35:00,36.9,35.6,29.77,SSW,202,3.3,0.0,95,0.00,OVC,,0.00,34.0,WeatherDisplay:10.37,2013-04-05 05:35:00,
2013-04-05 07:40:00,37.0,35.7,29.77,ESE,112,4.6,4.6,95,0.00,OVC,,0.00,36.6,WeatherDisplay:10.37,2013-04-05 05:40:00,
2013-04-05 07:45:00,37.0,35.7,29.77,SSE,158,4.6,4.6,95,0.00,OVC,,0.00,39.4,WeatherDisplay:10.37,2013-04-05 05:45:00,
2013-04-05 07:50:00,37.0,35.7,29.74,SSE,158,6.9,6.9,95,0.00,OVC,,0.00,42.2,WeatherDisplay:10.37,2013-04-05 05:50:00,
2013-04-05 07:55:00,37.0,35.7,29.74,ESE,112,5.8,5.8,95,0.00,OVC,,0.00,45.0,WeatherDisplay:10.37,2013-04-05 05:55:00,
2013-04-05 08:00:00,37.0,35.7,29.74,NNE,22,4.9,4.9,95,0.00,OVC,,0.00,47.9,WeatherDisplay:10.37,2013-04-05 06:00:00,
2013-04-05 08:05:00,37.2,35.9,29.77,SSW,202,5.8,5.8,95,0.00,OVC,,0.00,50.7,WeatherDisplay:10.37,2013-04-05 06:05:00,
2013-04-05 08:10:00,37.2,35.9,29.77,SSE,158,1.4,1.4,95,0.00,OVC,,0.00,53.5,WeatherDisplay:10.37,2013-04-05 06:10:00,
2013-04-05 08:15:00,37.2,35.9,29.77,ESE,112,6.2,6.2,95,0.00,OVC,,0.00,56.3,WeatherDisplay:10.37,2013-04-05 06:15:00,
2013-04-05 08:20:00,37.2,35.9,29.77,NNE,22,4.3,4.3,95,0.00,OVC,,0.00,58.9,WeatherDisplay:10.37,2013-04-05 06:20:00,
2013-04-05 08:25:00,37.2,35.9,29.77,ESE,112,5.6,5.6,95,0.00,OVC,,0.00,61.7,WeatherDisplay:10.37,2013-04-05 06:25:00,
2013-04-05 08:30:00,37.4,35.8,29.77,ESE,112,2.3,2.3,94,0.00,OVC,,0.00,64.5,WeatherDisplay:10.37,2013-04-05 06:30:00,
2013-04-05 08:35:00,37.4,36.1,29.77,ESE,112,4.6,4.6,95,0.00,OVC,,0.00,67.3,WeatherDisplay:10.37,2013-04-05 06:35:00,
2013-04-05 08:40:00,37.4,36.1,29.77,SSE,158,3.5,3.5,95,0.00,OVC,,0.00,70.0,WeatherDisplay:10.37,2013-04-05 06:40:00,
2013-04-05 08:45:00,37.4,36.1,29.77,ENE,68,4.6,4.6,95,0.00,OVC,,0.00,72.8,WeatherDisplay:10.37,2013-04-05 06:45:00,
2013-04-05 08:50:00,37.4,35.8,29.80,ESE,112,5.8,5.8,94,0.00,OVC,,0.00,75.4,WeatherDisplay:10.37,2013-04-05 06:50:00,
2013-04-05 08:55:00,37.6,36.0,29.80,ESE,112,4.0,4.0,94,0.00,OVC,,0.00,78.2,WeatherDisplay:10.37,2013-04-05 06:55:00,
2013-04-05 09:00:00,37.6,36.3,29.80,ESE,112,3.5,3.5,95,0.00,OVC,,0.00,80.8,WeatherDisplay:10.37,2013-04-05 07:00:00,
2013-04-05 09:05:00,37.8,36.5,29.77,ESE,112,3.5,3.5,95,0.00,OVC,,0.00,83.5,WeatherDisplay:10.37,2013-04-05 07:05:00,
2013-04-05 09:10:00,37.9,36.6,29.77,ESE,112,3.8,3.8,95,0.00,OVC,,0.00,86.1,WeatherDisplay:10.37,2013-04-05 07:10:00,
2013-04-05 09:15:00,38.1,36.8,29.77,SE,135,3.5,3.5,95,0.00,OVC,,0.00,88.8,WeatherDisplay:10.37,2013-04-05 07:15:00,
2013-04-05 09:20:00,38.5,36.9,29.77,ESE,112,2.3,2.3,94,0.00,OVC,,0.00,91.4,WeatherDisplay:10.37,2013-04-05 07:20:00,
2013-04-05 09:25:00,38.7,37.1,29.77,SW,225,3.5,3.5,94,0.00,OVC,,0.00,93.9,WeatherDisplay:10.37,2013-04-05 07:25:00,
2013-04-05 09:30:00,38.8,37.3,29.77,West,270,2.3,2.3,94,0.00,OVC,,0.00,96.5,WeatherDisplay:10.37,2013-04-05 07:30:00,
2013-04-05 09:36:00,39.0,37.2,29.80,WSW,248,3.5,3.5,93,0.00,OVC,,0.00,99.5,WeatherDisplay:10.37,2013-04-05 07:36:00,
2013-04-05 09:41:00,39.2,37.3,29.80,SE,135,4.6,4.6,93,0.00,OVC,,0.00,102.0,WeatherDisplay:10.37,2013-04-05 07:41:00,
2013-04-05 09:46:00,39.4,37.2,29.80,WNW,292,5.8,5.8,92,0.00,OVC,,0.00,104.4,WeatherDisplay:10.37,2013-04-05 07:46:00,
2013-04-05 09:51:00,39.4,37.2,29.80,ESE,112,3.5,3.5,92,0.00,OVC,,0.00,106.8,WeatherDisplay:10.37,2013-04-05 07:51:00,
2013-04-05 09:56:00,39.6,37.4,29.80,ESE,112,4.6,4.6,92,0.00,OVC,,0.00,109.2,WeatherDisplay:10.37,2013-04-05 07:56:00,
2013-04-05 10:01:00,39.7,37.3,29.80,ESE,112,5.8,5.8,91,0.00,OVC,,0.00,111.5,WeatherDisplay:10.37,2013-04-05 08:01:00,
2013-04-05 10:06:00,39.7,37.3,29.80,East,90,3.1,3.1,91,0.00,OVC,,0.00,113.8,WeatherDisplay:10.37,2013-04-05 08:06:00,
2013-04-05 10:12:00,39.9,37.5,29.80,ESE,112,8.1,8.1,91,0.00,OVC,,0.00,116.5,WeatherDisplay:10.37,2013-04-05 08:12:00,
2013-04-05 10:17:00,40.1,37.4,29.80,South,180,4.6,4.6,90,0.00,OVC,,0.00,118.6,WeatherDisplay:10.37,2013-04-05 08:17:00,
2013-04-05 10:22:00,40.3,37.6,29.80,WNW,292,8.1,8.1,90,0.00,OVC,,0.00,120.8,WeatherDisplay:10.37,2013-04-05 08:22:00,
2013-04-05 10:27:00,40.3,37.6,29.80,SSE,158,5.8,5.8,90,0.00,OVC,,0.00,122.9,WeatherDisplay:10.37,2013-04-05 08:27:00,
2013-04-05 10:32:00,40.5,37.8,29.77,WSW,248,3.5,3.5,90,0.00,OVC,,0.00,124.9,WeatherDisplay:10.37,2013-04-05 08:32:00,
2013-04-05 10:37:00,40.5,37.5,29.77,ESE,112,4.9,4.9,89,0.00,OVC,,0.00,127.0,WeatherDisplay:10.37,2013-04-05 08:37:00,
2013-04-05 10:42:00,40.5,37.5,29.77,ENE,68,6.9,6.9,89,0.00,OVC,,0.00,128.9,WeatherDisplay:10.37,2013-04-05 08:42:00,
2013-04-05 10:47:00,40.6,37.7,29.74,ESE,112,12.7,12.7,89,0.00,OVC,,0.00,130.8,WeatherDisplay:10.37,2013-04-05 08:47:00,
2013-04-05 10:52:00,40.8,37.5,29.74,WSW,248,5.8,5.8,88,0.00,OVC,,0.00,132.7,WeatherDisplay:10.37,2013-04-05 08:52:00,
2013-04-05 10:57:00,40.8,37.3,29.74,ESE,112,8.1,8.1,87,0.00,OVC,,0.00,134.5,WeatherDisplay:10.37,2013-04-05 08:57:00,
2013-04-05 11:02:00,41.0,37.4,29.74,ESE,112,6.9,6.9,87,0.00,OVC,,0.00,136.1,WeatherDisplay:10.37,2013-04-05 09:02:00,
2013-04-05 11:07:00,41.2,37.3,29.74,ESE,112,8.1,8.1,86,0.00,OVC,,0.00,137.8,WeatherDisplay:10.37,2013-04-05 09:07:00,
2013-04-05 11:12:00,41.2,37.0,29.74,East,90,8.7,8.7,85,0.00,OVC,,0.00,139.4,WeatherDisplay:10.37,2013-04-05 09:12:00,
2013-04-05 11:17:00,41.2,37.0,29.71,ESE,112,9.2,9.2,85,0.00,OVC,,0.00,140.9,WeatherDisplay:10.37,2013-04-05 09:17:00,
2013-04-05 11:22:00,41.2,37.0,29.71,ENE,68,5.8,5.8,85,0.00,OVC,,0.00,142.4,WeatherDisplay:10.37,2013-04-05 09:22:00,
2013-04-05 11:27:00,41.2,36.7,29.71,ESE,112,9.2,9.2,84,0.00,OVC,,0.00,143.9,WeatherDisplay:10.37,2013-04-05 09:27:00,
2013-04-05 11:32:00,41.4,37.2,29.74,SE,135,3.5,3.5,85,0.00,OVC,,0.00,145.2,WeatherDisplay:10.37,2013-04-05 09:32:00,
2013-04-05 11:37:00,41.4,36.9,29.74,NNE,22,8.1,8.1,84,0.00,OVC,,0.00,146.5,WeatherDisplay:10.37,2013-04-05 09:37:00,
2013-04-05 11:42:00,41.2,37.0,29.74,East,90,7.1,7.1,85,0.00,OVC,,0.00,147.7,WeatherDisplay:10.37,2013-04-05 09:42:00,
2013-04-05 11:47:00,41.2,36.7,29.74,NNE,22,6.9,6.9,84,0.00,OVC,,0.00,148.8,WeatherDisplay:10.37,2013-04-05 09:47:00,
2013-04-05 11:52:00,41.2,37.0,29.74,ESE,112,12.7,12.7,85,0.00,OVC,,0.00,150.0,WeatherDisplay:10.37,2013-04-05 09:52:00,
2013-04-05 11:58:00,41.0,36.8,29.74,ENE,68,8.1,8.1,85,0.00,OVC,,0.00,151.1,WeatherDisplay:10.37,2013-04-05 09:58:00,
2013-04-05 12:03:00,41.2,37.0,29.71,East,90,5.8,5.8,85,0.00,OVC,,0.00,152.1,WeatherDisplay:10.37,2013-04-05 10:03:00,
2013-04-05 12:08:00,41.2,37.0,29.71,ENE,68,8.1,8.1,85,0.00,OVC,,0.00,153.0,WeatherDisplay:10.37,2013-04-05 10:08:00,
2013-04-05 12:13:00,41.2,36.7,29.71,ENE,68,8.1,8.1,84,0.00,OVC,,0.00,153.8,WeatherDisplay:10.37,2013-04-05 10:13:00,
2013-04-05 12:18:00,41.4,36.9,29.71,ESE,112,6.9,6.9,84,0.00,OVC,,0.00,154.4,WeatherDisplay:10.37,2013-04-05 10:18:00,
2013-04-05 12:23:00,41.4,36.9,29.71,SSE,158,6.9,6.9,84,0.00,OVC,,0.00,155.1,WeatherDisplay:10.37,2013-04-05 10:23:00,
2013-04-05 12:28:00,41.4,36.9,29.71,ENE,68,6.0,6.0,84,0.00,OVC,,0.00,155.6,WeatherDisplay:10.37,2013-04-05 10:28:00,
2013-04-05 12:33:00,41.2,36.7,29.71,SSE,158,10.4,10.4,84,0.00,OVC,,0.00,156.1,WeatherDisplay:10.37,2013-04-05 10:33:00,
2013-04-05 12:38:00,41.2,37.0,29.71,SSE,158,4.6,4.6,85,0.00,OVC,,0.00,156.6,WeatherDisplay:10.37,2013-04-05 10:38:00,
2013-04-05 12:43:00,41.2,37.0,29.71,ESE,112,8.1,8.1,85,0.00,OVC,,0.00,156.9,WeatherDisplay:10.37,2013-04-05 10:43:00,
2013-04-05 12:48:00,41.2,37.3,29.71,ESE,112,9.2,9.2,86,0.00,OVC,,0.00,157.1,WeatherDisplay:10.37,2013-04-05 10:48:00,
2013-04-05 12:53:00,41.2,37.3,29.71,ESE,112,4.6,4.6,86,0.00,RA,,0.00,157.2,WeatherDisplay:10.37,2013-04-05 10:53:00,
2013-04-05 12:58:00,41.2,37.6,29.71,NNE,22,4.6,4.6,87,0.00,RA,,0.00,157.4,WeatherDisplay:10.37,2013-04-05 10:58:00,
2013-04-05 13:03:00,41.2,37.6,29.71,ESE,112,6.9,6.9,87,0.01,RA,,0.01,157.6,WeatherDisplay:10.37,2013-04-05 11:03:00,
2013-04-05 13:08:00,41.2,37.6,29.71,ENE,68,5.8,5.8,87,0.01,RA,,0.01,157.4,WeatherDisplay:10.37,2013-04-05 11:08:00,
2013-04-05 13:13:00,41.2,37.9,29.71,ENE,68,5.8,5.8,88,0.01,OVC,,0.01,157.4,WeatherDisplay:10.37,2013-04-05 11:13:00,
2013-04-05 13:18:00,41.2,38.2,29.71,ENE,68,4.6,4.6,89,0.01,RA,,0.01,157.2,WeatherDisplay:10.37,2013-04-05 11:18:00,
2013-04-05 13:23:00,41.2,38.8,29.71,ENE,68,4.0,4.0,91,0.01,RA,,0.01,156.9,WeatherDisplay:10.37,2013-04-05 11:23:00,
2013-04-05 13:28:00,41.2,38.5,29.71,ESE,112,4.9,4.9,90,0.02,RA,,0.02,156.6,WeatherDisplay:10.37,2013-04-05 11:28:00,
2013-04-05 13:33:00,41.2,38.8,29.71,NNW,338,6.9,6.9,91,0.02,RA,,0.02,156.1,WeatherDisplay:10.37,2013-04-05 11:33:00,
2013-04-05 13:38:00,41.2,38.8,29.71,ESE,112,5.8,5.8,91,0.02,RA,,0.02,155.6,WeatherDisplay:10.37,2013-04-05 11:38:00,
2013-04-05 13:43:00,41.2,38.8,29.71,East,90,4.6,4.6,91,0.02,RA,,0.02,155.1,WeatherDisplay:10.37,2013-04-05 11:43:00,
2013-04-05 13:48:00,41.5,39.4,29.71,WSW,248,3.8,3.8,92,0.02,RA,,0.02,154.4,WeatherDisplay:10.37,2013-04-05 11:48:00,
2013-04-05 13:54:00,41.5,39.7,29.71,ENE,68,4.7,4.7,93,0.02,OVC,,0.02,153.6,WeatherDisplay:10.37,2013-04-05 11:54:00,
2013-04-05 13:59:00,41.5,39.7,29.71,NE,45,8.1,8.1,93,0.02,RA,,0.03,152.8,WeatherDisplay:10.37,2013-04-05 11:59:00,
2013-04-05 14:04:00,41.5,39.7,29.71,NNE,22,5.8,5.9,93,0.02,RA,,0.03,152.0,WeatherDisplay:10.37,2013-04-05 12:04:00,
2013-04-05 14:09:00,41.5,39.7,29.71,ENE,68,9.2,9.2,93,0.02,OVC,,0.03,151.1,WeatherDisplay:10.37,2013-04-05 12:09:00,
2013-04-05 14:14:00,41.5,39.7,29.71,East,90,9.2,9.2,93,0.03,RA,,0.03,150.0,WeatherDisplay:10.37,2013-04-05 12:14:00,
2013-04-05 14:19:00,41.7,39.8,29.68,ESE,112,8.1,8.1,93,0.02,RA,,0.03,149.0,WeatherDisplay:10.37,2013-04-05 12:19:00,
2013-04-05 14:24:00,41.7,39.8,29.68,East,90,10.4,10.4,93,0.02,OVC,,0.03,147.8,WeatherDisplay:10.37,2013-04-05 12:24:00,
2013-04-05 14:29:00,41.7,39.8,29.68,ESE,112,8.7,8.7,93,0.02,OVC,,0.03,146.7,WeatherDisplay:10.37,2013-04-05 12:29:00,
2013-04-05 14:34:00,41.5,39.7,29.68,East,90,8.1,8.1,93,0.02,RA,,0.04,145.4,WeatherDisplay:10.37,2013-04-05 12:34:00,
2013-04-05 14:39:00,41.4,39.8,29.68,SSW,202,6.9,6.9,94,0.02,RA,,0.04,144.0,WeatherDisplay:10.37,2013-04-05 12:39:00,
2013-04-05 14:44:00,41.5,39.9,29.68,NNE,22,6.9,6.9,94,0.02,RA,,0.04,142.6,WeatherDisplay:10.37,2013-04-05 12:44:00,
2013-04-05 14:49:00,41.5,39.9,29.68,ENE,68,4.7,4.7,94,0.02,RA,,0.05,141.1,WeatherDisplay:10.37,2013-04-05 12:49:00,
2013-04-05 14:54:00,41.5,40.2,29.68,ESE,112,5.8,5.8,95,0.02,RA,,0.05,139.6,WeatherDisplay:10.37,2013-04-05 12:54:00,
2013-04-05 14:59:00,41.5,40.2,29.68,NNE,22,8.5,8.5,95,0.02,RA,,0.05,137.9,WeatherDisplay:10.37,2013-04-05 12:59:00,
2013-04-05 15:04:00,41.5,40.2,29.65,ENE,68,6.9,6.9,95,0.03,RA,,0.05,136.3,WeatherDisplay:10.37,2013-04-05 13:04:00,
2013-04-05 15:09:00,41.7,40.4,29.65,ESE,112,4.6,4.6,95,0.03,RA,,0.06,134.6,WeatherDisplay:10.37,2013-04-05 13:09:00,
2013-04-05 15:14:00,41.9,40.8,29.65,ENE,68,10.4,10.4,96,0.02,RA,,0.06,132.8,WeatherDisplay:10.37,2013-04-05 13:14:00,
2013-04-05 15:19:00,41.9,40.8,29.68,ESE,112,8.1,8.1,96,0.02,OVC,,0.06,131.0,WeatherDisplay:10.37,2013-04-05 13:19:00,
2013-04-05 15:25:00,41.9,40.8,29.68,NNE,22,5.8,6.7,96,0.02,OVC,,0.06,128.7,WeatherDisplay:10.37,2013-04-05 13:25:00,
2013-04-05 15:30:00,42.1,41.0,29.68,NNE,22,4.6,4.6,96,0.02,OVC,,0.06,126.9,WeatherDisplay:10.37,2013-04-05 13:30:00,
2013-04-05 15:35:00,42.1,41.0,29.71,ESE,112,3.5,3.5,96,0.02,RA,,0.06,124.7,WeatherDisplay:10.37,2013-04-05 13:35:00,
2013-04-05 15:40:00,42.1,41.0,29.71,ESE,112,6.9,6.9,96,0.02,RA,,0.06,122.8,WeatherDisplay:10.37,2013-04-05 13:40:00,
2013-04-05 15:45:00,42.1,41.0,29.71,ENE,68,9.2,9.2,96,0.02,OVC,,0.06,120.6,WeatherDisplay:10.37,2013-04-05 13:45:00,
2013-04-05 15:50:00,42.1,41.0,29.68,ENE,68,9.8,9.8,96,0.02,OVC,,0.06,118.5,WeatherDisplay:10.37,2013-04-05 13:50:00,
2013-04-05 15:55:00,41.9,40.8,29.68,NE,45,8.5,8.5,96,0.01,OVC,,0.06,116.3,WeatherDisplay:10.37,2013-04-05 13:55:00,
2013-04-05 16:00:00,41.9,40.8,29.68,SSW,202,9.2,9.2,96,0.01,OVC,,0.06,114.2,WeatherDisplay:10.37,2013-04-05 14:00:00,
2013-04-05 16:05:00,41.9,40.8,29.68,NNE,22,9.4,9.4,96,0.01,OVC,,0.06,111.9,WeatherDisplay:10.37,2013-04-05 14:05:00,
2013-04-05 16:10:00,41.9,40.8,29.68,ENE,68,4.6,4.6,96,0.00,OVC,,0.06,109.6,WeatherDisplay:10.37,2013-04-05 14:10:00,
2013-04-05 16:15:00,41.9,40.8,29.68,East,90,8.1,8.1,96,0.00,OVC,,0.06,107.1,WeatherDisplay:10.37,2013-04-05 14:15:00,
2013-04-05 16:22:00,41.9,40.8,29.68,ENE,68,10.4,10.4,96,0.00,OVC,,0.06,103.8,WeatherDisplay:10.37,2013-04-05 14:22:00,
2013-04-05 16:27:00,42.1,41.0,29.68,East,90,5.8,5.8,96,0.00,OVC,,0.06,101.3,WeatherDisplay:10.37,2013-04-05 14:27:00,
2013-04-05 16:33:00,42.1,41.0,29.68,North,0,6.9,6.9,96,0.00,OVC,,0.06,98.3,WeatherDisplay:10.37,2013-04-05 14:33:00,
2013-04-05 16:38:00,42.1,41.0,29.68,ESE,112,6.9,6.9,96,0.00,OVC,,0.06,95.9,WeatherDisplay:10.37,2013-04-05 14:38:00,
2013-04-05 16:43:00,42.1,41.0,29.68,North,0,5.8,5.8,96,0.00,OVC,,0.06,93.2,WeatherDisplay:10.37,2013-04-05 14:43:00,
2013-04-05 16:48:00,42.1,41.0,29.65,NNE,22,11.5,11.5,96,0.00,OVC,,0.06,90.6,WeatherDisplay:10.37,2013-04-05 14:48:00,
2013-04-05 16:53:00,42.1,41.0,29.65,East,90,8.1,8.1,96,0.00,OVC,,0.06,88.1,WeatherDisplay:10.37,2013-04-05 14:53:00,
2013-04-05 16:58:00,42.1,40.8,29.65,ESE,112,6.2,6.2,95,0.00,OVC,,0.06,85.5,WeatherDisplay:10.37,2013-04-05 14:58:00,
2013-04-05 17:03:00,41.9,40.6,29.68,ESE,112,4.6,4.6,95,0.00,OVC,,0.06,82.8,WeatherDisplay:10.37,2013-04-05 15:03:00,
2013-04-05 17:08:00,41.9,40.6,29.68,ESE,112,8.5,8.5,95,0.00,OVC,,0.06,80.2,WeatherDisplay:10.37,2013-04-05 15:08:00,
2013-04-05 17:13:00,41.9,40.8,29.68,ESE,112,10.4,10.4,96,0.00,OVC,,0.06,77.4,WeatherDisplay:10.37,2013-04-05 15:13:00,
2013-04-05 17:18:00,41.9,40.8,29.68,ENE,68,9.2,9.2,96,0.00,OVC,,0.06,74.7,WeatherDisplay:10.37,2013-04-05 15:18:00,
2013-04-05 17:23:00,41.9,40.8,29.68,NW,315,5.8,5.8,96,0.00,OVC,,0.06,71.9,WeatherDisplay:10.37,2013-04-05 15:23:00,
2013-04-05 17:28:00,41.9,40.8,29.68,ENE,68,6.9,6.9,96,0.00,OVC,,0.06,69.3,WeatherDisplay:10.37,2013-04-05 15:28:00,
2013-04-05 17:33:00,41.9,40.8,29.68,NNE,22,6.9,6.9,96,0.00,OVC,,0.06,66.5,WeatherDisplay:10.37,2013-04-05 15:33:00,
2013-04-05 17:38:00,41.9,40.8,29.68,NNE,22,5.9,5.9,96,0.00,OVC,,0.06,63.7,WeatherDisplay:10.37,2013-04-05 15:38:00,
2013-04-05 17:43:00,41.9,40.8,29.68,NE,45,2.4,2.4,96,0.00,OVC,,0.06,61.0,WeatherDisplay:10.37,2013-04-05 15:43:00,
2013-04-05 17:48:00,41.9,40.8,29.68,SE,135,4.6,4.6,96,0.00,OVC,,0.06,58.2,WeatherDisplay:10.37,2013-04-05 15:48:00,
2013-04-05 17:53:00,41.9,41.1,29.68,NE,45,8.1,8.1,97,0.00,OVC,,0.06,55.4,WeatherDisplay:10.37,2013-04-05 15:53:00,
2013-04-05 17:58:00,41.9,41.1,29.68,NNE,22,3.5,3.5,97,0.00,OVC,,0.06,52.6,WeatherDisplay:10.37,2013-04-05 15:58:00,
2013-04-05 18:03:00,41.9,41.1,29.68,NNE,22,5.8,5.8,97,0.00,OVC,,0.06,50.0,WeatherDisplay:10.37,2013-04-05 16:03:00,
2013-04-05 18:08:00,41.7,40.9,29.68,NNW,338,4.6,4.6,97,0.00,OVC,,0.06,47.2,WeatherDisplay:10.37,2013-04-05 16:08:00,
2013-04-05 18:13:00,41.7,40.9,29.68,NNE,22,6.2,6.2,97,0.00,OVC,,0.06,44.4,WeatherDisplay:10.37,2013-04-05 16:13:00,
2013-04-05 18:18:00,41.7,40.9,29.68,NNE,22,4.6,4.6,97,0.00,OVC,,0.06,41.6,WeatherDisplay:10.37,2013-04-05 16:18:00,
2013-04-05 18:23:00,41.7,40.9,29.68,ESE,112,3.5,3.5,97,0.00,OVC,,0.06,38.8,WeatherDisplay:10.37,2013-04-05 16:23:00,
2013-04-05 18:29:00,41.7,40.9,29.68,ENE,68,3.1,3.1,97,0.00,OVC,,0.06,35.5,WeatherDisplay:10.37,2013-04-05 16:29:00,
2013-04-05 18:34:00,41.7,41.2,29.68,NNW,338,4.6,4.6,98,0.00,OVC,,0.07,32.7,WeatherDisplay:10.37,2013-04-05 16:34:00,
2013-04-05 18:39:00,41.5,41.0,29.68,North,0,4.6,4.6,98,0.00,RA,,0.07,30.0,WeatherDisplay:10.37,2013-04-05 16:39:00,
2013-04-05 18:44:00,41.5,41.0,29.68,North,0,2.3,2.3,98,0.01,RA,,0.07,27.2,WeatherDisplay:10.37,2013-04-05 16:44:00,
2013-04-05 18:49:00,41.5,41.0,29.68,ESE,112,4.6,4.6,98,0.01,RA,,0.07,24.4,WeatherDisplay:10.37,2013-04-05 16:49:00,
2013-04-05 18:54:00,41.5,41.0,29.68,NNE,22,2.3,2.3,98,0.01,OVC,,0.07,21.8,WeatherDisplay:10.37,2013-04-05 16:54:00,
2013-04-05 18:59:00,41.5,41.0,29.68,WNW,292,3.5,3.5,98,0.01,RA,,0.07,19.1,WeatherDisplay:10.37,2013-04-05 16:59:00,
2013-04-05 19:04:00,41.5,41.0,29.68,North,0,3.5,3.5,98,0.01,RA,,0.07,16.5,WeatherDisplay:10.37,2013-04-05 17:04:00,
2013-04-05 19:10:00,41.5,41.0,29.68,NNE,22,5.8,5.8,98,0.01,OVC,,0.07,13.2,WeatherDisplay:10.37,2013-04-05 17:10:00,
2013-04-05 19:15:00,41.5,41.0,29.68,NE,45,2.3,2.3,98,0.01,OVC,,0.07,10.6,WeatherDisplay:10.37,2013-04-05 17:15:00,
2013-04-05 19:20:00,41.5,41.0,29.71,ENE,68,2.3,0.0,98,0.02,RA,,0.08,7.9,WeatherDisplay:10.37,2013-04-05 17:20:00,
2013-04-05 19:25:00,41.5,41.0,29.71,NNE,22,3.5,3.5,98,0.02,RA,,0.08,5.4,WeatherDisplay:10.37,2013-04-05 17:25:00,
2013-04-05 19:30:00,41.5,41.0,29.71,NNE,22,2.3,2.3,98,0.02,OVC,,0.08,2.8,WeatherDisplay:10.37,2013-04-05 17:30:00,
2013-04-05 19:35:00,41.5,41.0,29.68,NNW,338,5.8,5.8,98,0.01,OVC,,0.08,0.8,WeatherDisplay:10.37,2013-04-05 17:35:00,
2013-04-05 19:40:00,41.5,41.0,29.68,NNW,338,3.5,3.5,98,0.01,OVC,,0.08,0.8,WeatherDisplay:10.37,2013-04-05 17:40:00,
2013-04-05 19:45:00,41.5,41.0,29.68,NNE,22,2.0,0.0,98,0.01,OVC,,0.08,0.8,WeatherDisplay:10.37,2013-04-05 17:45:00,
2013-04-05 19:50:00,41.5,41.0,29.65,North,0,2.9,0.0,98,0.01,RA,,0.08,0.0,WeatherDisplay:10.37,2013-04-05 17:50:00,
2013-04-05 19:55:00,41.5,41.0,29.65,NNE,22,3.5,3.5,98,0.01,RA,,0.08,0.0,WeatherDisplay:10.37,2013-04-05 17:55:00,
2013-04-05 20:00:00,41.5,41.0,29.65,NNE,22,2.3,2.3,98,0.01,CLR,,0.08,0.0,WeatherDisplay:10.37,2013-04-05 18:00:00,
2013-04-05 20:05:00,41.5,41.0,29.65,NNW,338,3.5,0.0,98,0.01,CLR,,0.08,0.0,WeatherDisplay:10.37,2013-04-05 18:05:00,
2013-04-05 20:10:00,41.5,41.0,29.65,NNE,22,4.6,4.6,98,0.01,CLR,,0.09,0.0,WeatherDisplay:10.37,2013-04-05 18:10:00,
2013-04-05 20:15:00,41.5,41.0,29.65,NNW,338,0.0,0.0,98,0.01,RA,,0.09,0.0,WeatherDisplay:10.37,2013-04-05 18:15:00,
2013-04-05 20:20:00,41.5,41.0,29.65,WNW,292,2.3,2.3,98,0.01,RA,,0.09,0.0,WeatherDisplay:10.37,2013-04-05 18:20:00,
2013-04-05 20:27:00,41.5,41.0,29.65,NNW,338,2.3,2.3,98,0.02,RA,,0.10,0.0,WeatherDisplay:10.37,2013-04-05 18:27:00,
2013-04-05 20:33:00,41.4,40.8,29.68,NNE,22,4.6,4.6,98,0.02,RA,,0.10,0.0,WeatherDisplay:10.37,2013-04-05 18:33:00,
2013-04-05 20:38:00,41.4,40.8,29.68,NNW,338,2.3,2.3,98,0.02,RA,,0.10,0.0,WeatherDisplay:10.37,2013-04-05 18:38:00,
2013-04-05 20:46:00,41.2,40.7,29.68,NNW,338,4.6,4.6,98,0.03,RA,,0.11,0.0,WeatherDisplay:10.37,2013-04-05 18:46:00,
2013-04-05 20:59:00,41.0,40.5,29.68,NNE,22,4.6,4.6,98,0.03,CLR,,0.11,0.0,WeatherDisplay:10.37,2013-04-05 18:59:00,
2013-04-05 21:04:00,41.0,40.5,29.71,NNW,338,3.5,3.5,98,0.03,RA,,0.11,0.0,WeatherDisplay:10.37,2013-04-05 19:04:00,
2013-04-05 21:09:00,41.0,40.5,29.71,NNE,22,2.3,2.3,98,0.03,,,0.11,0.0,WeatherDisplay:10.37,2013-04-05 19:09:00,
2013-04-05 21:14:00,41.0,40.5,29.71,North,0,3.5,3.5,98,0.03,RA,,0.12,0.0,WeatherDisplay:10.37,2013-04-05 19:14:00,
2013-04-05 21:19:00,41.0,40.5,29.71,NNW,338,3.5,3.5,98,0.03,RA,,0.12,0.0,WeatherDisplay:10.37,2013-04-05 19:19:00,
2013-04-05 21:24:00,41.0,40.5,29.71,NNE,22,2.3,2.3,98,0.03,CLR,,0.12,0.0,WeatherDisplay:10.37,2013-04-05 19:24:00,
2013-04-05 21:29:00,41.0,40.5,29.71,NNW,338,3.1,3.1,98,0.02,CLR,,0.12,0.0,WeatherDisplay:10.37,2013-04-05 19:29:00,
2013-04-05 21:34:00,40.8,40.3,29.71,NNW,338,3.5,3.5,98,0.02,CLR,,0.12,0.0,WeatherDisplay:10.37,2013-04-05 19:34:00,
2013-04-05 21:39:00,40.8,40.3,29.71,NNE,22,2.3,2.3,98,0.02,RA,,0.12,0.0,WeatherDisplay:10.37,2013-04-05 19:39:00,
2013-04-05 21:44:00,40.8,40.3,29.71,NNE,22,3.5,3.5,98,0.02,RA,,0.12,0.0,WeatherDisplay:10.37,2013-04-05 19:44:00,
2013-04-05 21:50:00,40.8,40.3,29.71,NNW,338,2.3,2.3,98,0.01,CLR,,0.12,0.0,WeatherDisplay:10.37,2013-04-05 19:50:00,
2013-04-05 21:55:00,40.8,40.3,29.71,NNW,338,4.6,4.6,98,0.01,CLR,,0.12,0.0,WeatherDisplay:10.37,2013-04-05 19:55:00,
2013-04-05 22:00:00,40.6,40.1,29.71,NNW,338,4.6,4.6,98,0.01,CLR,,0.12,0.0,WeatherDisplay:10.37,2013-04-05 20:00:00,
2013-04-05 22:05:00,40.6,40.1,29.71,NNE,22,3.5,3.5,98,0.01,RA,,0.12,0.0,WeatherDisplay:10.37,2013-04-05 20:05:00,
2013-04-05 22:10:00,40.6,40.1,29.71,NNW,338,4.6,4.6,98,0.01,RA,,0.12,0.0,WeatherDisplay:10.37,2013-04-05 20:10:00,
2013-04-05 22:15:00,40.6,40.1,29.71,NNW,338,3.5,3.5,98,0.01,,,0.12,0.0,WeatherDisplay:10.37,2013-04-05 20:15:00,
2013-04-05 22:20:00,40.6,40.1,29.71,NNW,338,3.5,3.5,98,0.01,CLR,,0.12,0.0,WeatherDisplay:10.37,2013-04-05 20:20:00,
2013-04-05 22:25:00,40.6,40.1,29.71,North,0,4.9,4.9,98,0.01,CLR,,0.12,0.0,WeatherDisplay:10.37,2013-04-05 20:25:00,
2013-04-05 22:30:00,40.5,39.9,29.71,NNW,338,3.5,3.5,98,0.01,CLR,,0.12,0.0,WeatherDisplay:10.37,2013-04-05 20:30:00,
2013-04-05 22:35:00,40.5,39.9,29.71,North,0,4.7,4.7,98,0.01,CLR,,0.12,0.0,WeatherDisplay:10.37,2013-04-05 20:35:00,
2013-04-05 22:40:00,40.5,39.9,29.71,NNW,338,3.5,3.5,98,0.00,CLR,,0.12,0.0,WeatherDisplay:10.37,2013-04-05 20:40:00,
2013-04-05 22:45:00,40.5,39.9,29.71,NNE,22,4.6,4.6,98,0.00,CLR,,0.12,0.0,WeatherDisplay:10.37,2013-04-05 20:45:00,
2013-04-05 22:50:00,40.5,39.9,29.71,NNE,22,6.9,6.9,98,0.00,CLR,,0.12,0.0,WeatherDisplay:10.37,2013-04-05 20:50:00,
2013-04-05 22:55:00,40.5,39.9,29.71,WNW,292,3.5,3.5,98,0.00,CLR,,0.12,0.0,WeatherDisplay:10.37,2013-04-05 20:55:00,
2013-04-05 23:00:00,40.5,39.9,29.71,NNW,338,2.4,2.4,98,0.00,CLR,,0.12,0.0,WeatherDisplay:10.37,2013-04-05 21:00:00,
2013-04-05 23:05:00,40.5,39.9,29.71,North,0,3.5,3.5,98,0.00,CLR,,0.12,0.0,WeatherDisplay:10.37,2013-04-05 21:05:00,
2013-04-05 23:10:00,40.5,39.9,29.71,NNW,338,4.6,4.6,98,0.00,CLR,,0.12,0.0,WeatherDisplay:10.37,2013-04-05 21:10:00,
2013-04-05 23:15:00,40.5,39.9,29.71,NNE,22,4.6,4.6,98,0.00,CLR,,0.12,0.0,WeatherDisplay:10.37,2013-04-05 21:15:00,
2013-04-05 23:20:00,40.5,39.9,29.71,NNE,22,3.3,3.3,98,0.00,CLR,,0.12,0.0,WeatherDisplay:10.37,2013-04-05 21:20:00,
2013-04-05 23:25:00,40.5,39.9,29.71,NNE,22,4.0,4.0,98,0.00,CLR,,0.12,0.0,WeatherDisplay:10.37,2013-04-05 21:25:00,
2013-04-05 23:30:00,40.3,39.8,29.71,NNW,338,3.5,3.5,98,0.00,CLR,,0.12,0.0,WeatherDisplay:10.37,2013-04-05 21:30:00,
2013-04-05 23:36:00,40.3,39.8,29.71,ESE,112,3.8,3.8,98,0.00,CLR,,0.12,0.0,WeatherDisplay:10.37,2013-04-05 21:36:00,
2013-04-05 23:41:00,40.3,39.8,29.71,NW,315,4.6,4.6,98,0.00,CLR,,0.12,0.0,WeatherDisplay:10.37,2013-04-05 21:41:00,
2013-04-05 23:47:00,40.3,39.8,29.71,NNW,338,2.3,2.4,98,0.00,CLR,,0.12,0.0,WeatherDisplay:10.37,2013-04-05 21:47:00,
2013-04-05 23:52:00,40.3,39.8,29.71,NW,315,4.6,4.6,98,0.00,CLR,,0.12,0.0,WeatherDisplay:10.37,2013-04-05 21:52:00,
2013-04-05 23:57:00,40.3,39.8,29.71,NNE,22,5.8,5.8,98,0.00,CLR,,0.12,0.0,WeatherDisplay:10.37,2013-04-05 21:57:00,